Time,TemperatureF,DewpointF,PressureIn,WindDirection,WindDirectionDegrees,WindSpeedMPH,WindSpeedGustMPH,Humidity,HourlyPrecipIn,Conditions,Clouds,dailyrainin,SoftwareType,DateUTC
2013-03-30 00:02:00,37.0,26.0,30.24,North,0,0.0,0.0,64,0.00,,,0.00,,2013-03-30 04:02:00,
2013-03-30 00:12:00,37.0,26.0,30.24,North,0,0.0,0.0,64,0.00,,,0.00,,2013-03-30 04:12:00,
2013-03-30 00:23:00,36.0,25.0,30.23,North,0,0.0,1.0,64,0.00,,,0.00,,2013-03-30 04:23:00,
2013-03-30 00:32:00,36.0,25.0,30.23,North,0,0.0,0.0,65,0.00,,,0.00,,2013-03-30 04:32:00,
2013-03-30 00:43:00,36.0,25.0,30.23,North,0,0.0,0.0,65,0.00,,,0.00,,2013-03-30 04:43:00,
2013-03-30 00:52:00,35.0,25.0,30.23,North,0,0.0,0.0,67,0.00,,,0.00,,2013-03-30 04:52:00,
2013-03-30 01:02:00,34.0,25.0,30.23,North,0,0.0,0.0,69,0.00,,,0.00,,2013-03-30 05:02:00,
2013-03-30 01:12:00,34.0,25.0,30.23,North,0,0.0,0.0,69,0.00,,,0.00,,2013-03-30 05:12:00,
2013-03-30 01:22:00,33.0,24.0,30.22,North,0,0.0,0.0,70,0.00,,,0.00,,2013-03-30 05:22:00,
2013-03-30 01:32:00,33.0,25.0,30.22,North,0,0.0,1.0,71,0.00,,,0.00,,2013-03-30 05:32:00,
2013-03-30 01:42:00,33.0,25.0,30.22,North,0,0.0,1.0,71,0.00,,,0.00,,2013-03-30 05:42:00,
2013-03-30 01:52:00,33.0,25.0,30.22,North,0,0.0,0.0,71,0.00,,,0.00,,2013-03-30 05:52:00,
2013-03-30 02:02:00,33.0,25.0,30.22,North,0,0.0,1.0,71,0.00,,,0.00,,2013-03-30 06:02:00,
2013-03-30 02:12:00,33.0,25.0,30.22,North,0,0.0,1.0,71,0.00,,,0.00,,2013-03-30 06:12:00,
2013-03-30 02:22:00,33.0,25.0,30.22,North,0,0.0,0.0,72,0.00,,,0.00,,2013-03-30 06:22:00,
2013-03-30 02:32:00,32.0,24.0,30.22,North,0,0.0,0.0,72,0.00,,,0.00,,2013-03-30 06:32:00,
2013-03-30 02:42:00,32.0,24.0,30.22,North,0,0.0,0.0,72,0.00,,,0.00,,2013-03-30 06:42:00,
2013-03-30 02:52:00,32.0,24.0,30.22,North,0,0.0,0.0,72,0.00,,,0.00,,2013-03-30 06:52:00,
2013-03-30 03:02:00,32.0,24.0,30.22,North,0,0.0,0.0,72,0.00,,,0.00,,2013-03-30 07:02:00,
2013-03-30 03:12:00,32.0,24.0,30.22,North,0,0.0,0.0,72,0.00,,,0.00,,2013-03-30 07:12:00,
2013-03-30 03:22:00,31.0,23.0,30.21,North,0,0.0,0.0,73,0.00,,,0.00,,2013-03-30 07:22:00,
2013-03-30 03:32:00,31.0,23.0,30.21,North,0,0.0,0.0,73,0.00,,,0.00,,2013-03-30 07:32:00,
2013-03-30 03:42:00,31.0,23.0,30.21,North,0,0.0,0.0,73,0.00,,,0.00,,2013-03-30 07:42:00,
2013-03-30 03:52:00,31.0,23.0,30.20,North,0,0.0,0.0,73,0.00,,,0.00,,2013-03-30 07:52:00,
2013-03-30 04:02:00,31.0,23.0,30.19,North,0,0.0,1.0,73,0.00,,,0.00,,2013-03-30 08:02:00,
2013-03-30 04:12:00,31.0,23.0,30.19,North,0,0.0,1.0,73,0.00,,,0.00,,2013-03-30 08:12:00,
2013-03-30 04:21:00,31.0,23.0,30.19,North,0,0.0,0.0,73,0.00,,,0.00,,2013-03-30 08:21:00,
2013-03-30 04:32:00,32.0,24.0,30.18,North,0,0.0,2.0,73,0.00,,,0.00,,2013-03-30 08:32:00,
2013-03-30 04:42:00,32.0,24.0,30.18,North,0,0.0,2.0,73,0.00,,,0.00,,2013-03-30 08:42:00,
2013-03-30 04:52:00,32.0,24.0,30.18,North,0,0.0,1.0,72,0.00,,,0.00,,2013-03-30 08:52:00,
2013-03-30 05:02:00,32.0,24.0,30.18,North,0,0.0,1.0,73,0.00,,,0.00,,2013-03-30 09:02:00,
2013-03-30 05:12:00,32.0,24.0,30.18,North,0,0.0,2.0,73,0.00,,,0.00,,2013-03-30 09:12:00,
2013-03-30 05:22:00,32.0,24.0,30.18,North,0,0.0,2.0,73,0.00,,,0.00,,2013-03-30 09:22:00,
2013-03-30 05:43:00,31.0,23.0,30.17,North,0,0.0,0.0,73,0.00,,,0.00,,2013-03-30 09:43:00,
2013-03-30 05:53:00,31.0,23.0,30.17,North,0,0.0,0.0,73,0.00,,,0.00,,2013-03-30 09:53:00,
2013-03-30 06:02:00,31.0,23.0,30.16,North,0,0.0,0.0,73,0.00,,,0.00,,2013-03-30 10:02:00,
2013-03-30 06:13:00,31.0,23.0,30.16,North,0,0.0,0.0,73,0.00,,,0.00,,2013-03-30 10:13:00,
2013-03-30 06:23:00,31.0,23.0,30.16,North,0,0.0,0.0,73,0.00,,,0.00,,2013-03-30 10:23:00,
2013-03-30 06:33:00,31.0,23.0,30.16,North,0,0.0,0.0,73,0.00,,,0.00,,2013-03-30 10:33:00,
2013-03-30 06:42:00,31.0,23.0,30.16,North,0,0.0,0.0,73,0.00,,,0.00,,2013-03-30 10:42:00,
2013-03-30 06:52:00,31.0,23.0,30.16,North,0,0.0,0.0,73,0.00,,,0.00,,2013-03-30 10:52:00,
2013-03-30 07:03:00,31.0,23.0,30.15,North,0,0.0,1.0,73,0.00,,,0.00,,2013-03-30 11:03:00,
2013-03-30 07:12:00,31.0,23.0,30.15,North,0,0.0,1.0,73,0.00,,,0.00,,2013-03-30 11:12:00,
2013-03-30 07:22:00,32.0,24.0,30.14,North,0,0.0,0.0,73,0.00,,,0.00,,2013-03-30 11:22:00,
2013-03-30 07:33:00,32.0,24.0,30.14,North,0,0.0,0.0,73,0.00,,,0.00,,2013-03-30 11:33:00,
2013-03-30 07:42:00,32.0,24.0,30.14,North,0,0.0,0.0,73,0.00,,,0.00,,2013-03-30 11:42:00,
2013-03-30 07:50:00,32.0,24.0,30.12,North,0,0.0,1.0,73,0.00,,,0.00,,2013-03-30 11:50:00,
2013-03-30 08:22:00,32.0,24.0,30.12,North,0,0.0,1.0,73,0.00,,,0.00,,2013-03-30 12:22:00,
2013-03-30 08:32:00,32.0,24.0,30.12,North,0,0.0,1.0,73,0.00,,,0.00,,2013-03-30 12:32:00,
2013-03-30 08:42:00,32.0,24.0,30.12,North,0,0.0,1.0,73,0.00,,,0.00,,2013-03-30 12:42:00,
2013-03-30 09:02:00,35.0,26.0,30.11,North,0,0.0,4.0,70,0.00,,,0.00,,2013-03-30 13:02:00,
2013-03-30 09:12:00,35.0,26.0,30.11,North,0,0.0,4.0,70,0.00,,,0.00,,2013-03-30 13:12:00,
2013-03-30 09:22:00,36.0,26.0,30.11,North,0,0.0,2.0,67,0.00,,,0.00,,2013-03-30 13:22:00,
2013-03-30 09:32:00,38.0,27.0,30.11,North,0,0.0,2.0,64,0.00,,,0.00,,2013-03-30 13:32:00,
2013-03-30 09:42:00,38.0,27.0,30.11,North,0,0.0,2.0,64,0.00,,,0.00,,2013-03-30 13:42:00,
2013-03-30 09:52:00,40.0,28.0,30.11,North,0,0.0,1.0,63,0.00,,,0.00,,2013-03-30 13:52:00,
2013-03-30 10:02:00,41.0,28.0,30.10,North,0,0.0,5.0,60,0.00,,,0.00,,2013-03-30 14:02:00,
2013-03-30 10:11:00,41.0,28.0,30.10,North,0,0.0,5.0,60,0.00,,,0.00,,2013-03-30 14:11:00,
2013-03-30 10:22:00,42.0,28.0,30.08,North,0,0.0,4.0,58,0.00,,,0.00,,2013-03-30 14:22:00,
2013-03-30 10:32:00,43.0,29.0,30.09,North,0,0.0,6.0,57,0.00,,,0.00,,2013-03-30 14:32:00,
2013-03-30 10:42:00,43.0,29.0,30.09,North,0,0.0,6.0,57,0.00,,,0.00,,2013-03-30 14:42:00,
2013-03-30 10:52:00,43.0,29.0,30.09,North,0,0.0,6.0,57,0.00,,,0.00,,2013-03-30 14:52:00,
2013-03-30 11:02:00,43.0,29.0,30.09,North,0,0.0,6.0,57,0.00,,,0.00,,2013-03-30 15:02:00,
2013-03-30 11:22:00,43.0,30.0,30.07,North,0,0.0,6.0,59,0.00,,,0.00,,2013-03-30 15:22:00,
2013-03-30 11:33:00,43.0,30.0,30.07,North,0,0.0,6.0,59,0.00,,,0.00,,2013-03-30 15:33:00,
2013-03-30 11:43:00,43.0,30.0,30.07,North,0,0.0,6.0,59,0.00,,,0.00,,2013-03-30 15:43:00,
2013-03-30 11:52:00,44.0,30.0,30.06,North,0,0.0,6.0,58,0.00,,,0.00,,2013-03-30 15:52:00,
2013-03-30 12:03:00,45.0,31.0,30.05,SSW,194,1.0,7.0,58,0.00,,,0.00,,2013-03-30 16:03:00,
2013-03-30 12:13:00,45.0,31.0,30.05,North,0,0.0,7.0,58,0.00,,,0.00,,2013-03-30 16:13:00,
2013-03-30 12:23:00,45.0,31.0,30.05,North,0,0.0,7.0,58,0.00,,,0.00,,2013-03-30 16:23:00,
2013-03-30 12:33:00,46.0,32.0,30.04,North,0,0.0,6.0,58,0.00,,,0.00,,2013-03-30 16:33:00,
2013-03-30 12:43:00,46.0,32.0,30.04,North,0,0.0,6.0,58,0.00,,,0.00,,2013-03-30 16:43:00,
2013-03-30 12:52:00,46.0,32.0,30.04,North,0,0.0,6.0,58,0.00,,,0.00,,2013-03-30 16:52:00,
2013-03-30 13:02:00,47.0,33.0,30.02,North,0,0.0,7.0,59,0.00,,,0.00,,2013-03-30 17:02:00,
2013-03-30 13:23:00,47.0,34.0,30.02,North,0,0.0,6.0,60,0.00,,,0.00,,2013-03-30 17:23:00,
2013-03-30 13:32:00,48.0,35.0,30.01,North,0,0.0,5.0,61,0.00,,,0.00,,2013-03-30 17:32:00,
2013-03-30 13:42:00,48.0,35.0,30.01,North,0,0.0,5.0,61,0.00,,,0.00,,2013-03-30 17:42:00,
2013-03-30 13:52:00,48.0,35.0,30.01,North,0,0.0,5.0,61,0.00,,,0.00,,2013-03-30 17:52:00,
2013-03-30 14:03:00,49.0,37.0,30.00,SSW,208,1.0,7.0,63,0.00,,,0.00,,2013-03-30 18:03:00,
2013-03-30 14:12:00,49.0,37.0,29.99,SW,232,1.0,7.0,64,0.00,,,0.00,,2013-03-30 18:12:00,
2013-03-30 14:22:00,49.0,37.0,29.99,SW,232,1.0,7.0,64,0.00,,,0.00,,2013-03-30 18:22:00,
2013-03-30 14:32:00,50.0,39.0,29.98,North,0,0.0,9.0,65,0.00,,,0.00,,2013-03-30 18:32:00,
2013-03-30 14:42:00,50.0,39.0,29.98,North,0,0.0,9.0,65,0.00,,,0.00,,2013-03-30 18:42:00,
2013-03-30 14:53:00,50.0,39.0,29.98,North,0,0.0,9.0,65,0.00,,,0.00,,2013-03-30 18:53:00,
2013-03-30 15:03:00,53.0,40.0,29.97,SW,235,2.0,7.0,62,0.00,,,0.00,,2013-03-30 19:03:00,
2013-03-30 15:13:00,53.0,40.0,29.97,SW,235,2.0,7.0,62,0.00,,,0.00,,2013-03-30 19:13:00,
2013-03-30 15:22:00,53.0,40.0,29.97,SW,235,2.0,7.0,62,0.00,,,0.00,,2013-03-30 19:22:00,
2013-03-30 15:32:00,55.0,41.0,29.95,WSW,237,3.0,8.0,60,0.00,,,0.00,,2013-03-30 19:32:00,
2013-03-30 15:42:00,55.0,41.0,29.95,WSW,237,3.0,8.0,60,0.00,,,0.00,,2013-03-30 19:42:00,
2013-03-30 15:53:00,55.0,40.0,29.93,SW,229,4.0,10.0,57,0.00,,,0.00,,2013-03-30 19:53:00,
2013-03-30 16:02:00,55.0,41.0,29.93,SW,214,3.0,11.0,59,0.00,,,0.00,,2013-03-30 20:02:00,
2013-03-30 16:12:00,55.0,41.0,29.93,SW,214,3.0,11.0,59,0.00,,,0.00,,2013-03-30 20:12:00,
2013-03-30 16:22:00,55.0,41.0,29.92,SW,231,2.0,8.0,59,0.00,,,0.00,,2013-03-30 20:22:00,
2013-03-30 16:32:00,55.0,40.0,29.92,SW,230,4.0,10.0,57,0.00,,,0.00,,2013-03-30 20:32:00,
2013-03-30 16:42:00,55.0,40.0,29.92,SW,230,4.0,10.0,57,0.00,,,0.00,,2013-03-30 20:42:00,
2013-03-30 16:52:00,53.0,39.0,29.91,WSW,237,3.0,12.0,60,0.00,,,0.00,,2013-03-30 20:52:00,
2013-03-30 17:02:00,54.0,40.0,29.91,SW,233,2.0,12.0,60,0.00,,,0.00,,2013-03-30 21:02:00,
2013-03-30 17:12:00,54.0,40.0,29.91,SW,233,2.0,12.0,60,0.00,,,0.00,,2013-03-30 21:12:00,
2013-03-30 17:22:00,53.0,40.0,29.91,SW,236,1.0,8.0,61,0.00,,,0.00,,2013-03-30 21:22:00,
2013-03-30 17:43:00,53.0,40.0,29.90,SW,234,1.0,8.0,62,0.00,,,0.00,,2013-03-30 21:43:00,
2013-03-30 17:52:00,52.0,40.0,29.90,WSW,238,1.0,7.0,64,0.00,,,0.00,,2013-03-30 21:52:00,
2013-03-30 18:03:00,52.0,41.0,29.89,WSW,245,2.0,7.0,65,0.00,,,0.00,,2013-03-30 22:03:00,
2013-03-30 18:13:00,52.0,41.0,29.89,WSW,245,2.0,7.0,65,0.00,,,0.00,,2013-03-30 22:13:00,
2013-03-30 18:23:00,52.0,41.0,29.88,WSW,242,3.0,11.0,65,0.00,,,0.00,,2013-03-30 22:23:00,
2013-03-30 18:33:00,51.0,40.0,29.88,SW,229,1.0,9.0,65,0.00,,,0.00,,2013-03-30 22:33:00,
2013-03-30 18:43:00,51.0,40.0,29.88,SW,229,1.0,9.0,65,0.00,,,0.00,,2013-03-30 22:43:00,
2013-03-30 18:53:00,51.0,40.0,29.87,WSW,237,2.0,9.0,66,0.00,,,0.00,,2013-03-30 22:53:00,
2013-03-30 19:02:00,51.0,40.0,29.87,WSW,237,2.0,9.0,66,0.00,,,0.00,,2013-03-30 23:02:00,
2013-03-30 19:12:00,51.0,40.0,29.87,WSW,237,2.0,9.0,66,0.00,,,0.00,,2013-03-30 23:12:00,
2013-03-30 19:22:00,51.0,40.0,29.87,North,0,0.0,7.0,66,0.00,,,0.00,,2013-03-30 23:22:00,
2013-03-30 19:33:00,50.0,40.0,29.86,North,0,0.0,6.0,68,0.00,,,0.00,,2013-03-30 23:33:00,
2013-03-30 19:42:00,50.0,40.0,29.86,North,0,0.0,6.0,68,0.00,,,0.00,,2013-03-30 23:42:00,
2013-03-30 19:52:00,50.0,40.0,29.86,North,0,0.0,6.0,68,0.00,,,0.00,,2013-03-30 23:52:00,
2013-03-30 20:02:00,49.0,39.0,29.86,North,0,0.0,5.0,69,0.00,,,0.00,,2013-03-31 00:02:00,
2013-03-30 20:12:00,49.0,39.0,29.86,North,0,0.0,5.0,69,0.00,,,0.00,,2013-03-31 00:12:00,
2013-03-30 20:22:00,49.0,39.0,29.85,North,0,0.0,4.0,69,0.00,,,0.00,,2013-03-31 00:22:00,
2013-03-30 20:32:00,48.0,38.0,29.84,North,0,0.0,2.0,69,0.00,,,0.00,,2013-03-31 00:32:00,
2013-03-30 20:42:00,48.0,38.0,29.84,North,0,0.0,2.0,69,0.00,,,0.00,,2013-03-31 00:42:00,
2013-03-30 20:52:00,48.0,38.0,29.85,WSW,250,1.0,5.0,69,0.00,,,0.00,,2013-03-31 00:52:00,
2013-03-30 21:02:00,48.0,38.0,29.85,North,0,0.0,3.0,69,0.00,,,0.00,,2013-03-31 01:02:00,
2013-03-30 21:12:00,48.0,38.0,29.85,North,0,0.0,3.0,69,0.00,,,0.00,,2013-03-31 01:12:00,
2013-03-30 21:22:00,48.0,38.0,29.85,North,0,0.0,3.0,69,0.00,,,0.00,,2013-03-31 01:22:00,
2013-03-30 21:32:00,47.0,37.0,29.85,North,0,0.0,4.0,69,0.00,,,0.00,,2013-03-31 01:32:00,
2013-03-30 21:43:00,47.0,37.0,29.85,North,0,0.0,4.0,69,0.00,,,0.00,,2013-03-31 01:43:00,
2013-03-30 21:53:00,47.0,37.0,29.85,North,0,0.0,4.0,68,0.00,,,0.00,,2013-03-31 01:53:00,
2013-03-30 22:02:00,47.0,37.0,29.83,North,0,0.0,4.0,68,0.00,,,0.00,,2013-03-31 02:02:00,
2013-03-30 22:13:00,47.0,37.0,29.83,North,0,0.0,4.0,68,0.00,,,0.00,,2013-03-31 02:13:00,
2013-03-30 22:22:00,47.0,37.0,29.83,WSW,250,1.0,5.0,68,0.00,,,0.00,,2013-03-31 02:22:00,
2013-03-30 22:32:00,47.0,37.0,29.83,North,0,0.0,7.0,68,0.00,,,0.00,,2013-03-31 02:32:00,
2013-03-30 22:43:00,47.0,37.0,29.83,North,0,0.0,7.0,68,0.00,,,0.00,,2013-03-31 02:43:00,
2013-03-30 22:52:00,47.0,37.0,29.83,WSW,239,3.0,7.0,67,0.00,,,0.00,,2013-03-31 02:52:00,
2013-03-30 23:02:00,46.0,36.0,29.83,North,0,0.0,7.0,67,0.00,,,0.00,,2013-03-31 03:02:00,
2013-03-30 23:12:00,46.0,36.0,29.83,North,0,0.0,7.0,67,0.00,,,0.00,,2013-03-31 03:12:00,
2013-03-30 23:22:00,45.0,35.0,29.83,West,271,1.0,7.0,67,0.01,,,0.01,,2013-03-31 03:22:00,
2013-03-30 23:33:00,45.0,35.0,29.83,WSW,244,2.0,7.0,67,0.01,,,0.01,,2013-03-31 03:33:00,
2013-03-30 23:43:00,45.0,35.0,29.83,WSW,244,2.0,7.0,67,0.01,,,0.01,,2013-03-31 03:43:00,
2013-03-30 23:53:00,45.0,35.0,29.83,WSW,254,1.0,6.0,67,0.01,,,0.01,,2013-03-31 03:53:00,